BREEZE-M R/B, 43433

Orbit data source: Space-Track

BREEZE-M R/B, 43433 is space debris in GEO originally from a launch on Wed, 18 Apr 2018 UTC launched from the Tyuratam Missile And Space Complex (TTMTR). Debris objects in space refer to the collection of defunct objects orbiting the Earth. Examples of debris include non-operational satellites, rocket bodies, and fragments generated from explosions, collisions, or faulty payload assembly.

Not visible in the next 10 days
Identifier
43433, 2018-037B
Orbit
GEO
Last TLE update
2 days ago
Origin
Manufacturer
Khrunichev
Mission
Spacecraft
Bus & Motor
BRIZ, Unknown motor
Mass
~1,600 kg wet, 1,600 kg dry
Launch date (UTC)
2018-04-18 (7 years ago)
Launch vehicle
Unknown
Launch site
Tyuratam Missile And Space Complex (TTMTR)
Object type
Payload
Rocket body
Debris
Shape & HBR
Cyl, 4 m
Radar Cross Section
14.451 m²

Expand to show TLE details & history

TLE from 2 days ago
0 BREEZE-M R/B
1 43433U 18037B   25182.97847380 -.00000195  00000-0  00000-0 0  9996
2 43433   7.1489  75.0070 0687712  19.9859 342.5024  0.90514672 24032
Epoch: 2025-07-01T23:29Z
TLE epoch observation values (Epoch: 2025-07-01T23:29:00.136Z)
Latitude
-0.00001°
Longitude
162.3979°
Altitude
35,812.441 km
Speed
3.173 km/s
True Right ascension
04h 59m 39s
True Declination
0° 00' 00"
Sunlit
Object was in daylight at epoch
Visualization orbit readout
Latitude
2.2981°
Longitude
-36.2219°
Altitude
41,101.706 km
Speed
2.821 km/s
Apparent Right ascension
15h 31m 04s
Apparent Declination
-2° 25' 17"
Sunlit
Object is in daylight
Visualization observer readout
Local Sidereal Time
01:04:55
Azimuth
309.056° NW
Elevation
-39.999°
Doppler factor
1
Orbital elements
Apogee altitude
41,870.32 km
Perigee altitude
35,661.125 km
Semi-major axis
45,143.86 km
Eccentricity
0.06877
Inclination
7.1489°
RAAN
75.007°
Arg. of periapsis
19.9859°
True anomaly
Unknown
Mean anomaly
342.5024°
Eccentric anomaly
Unknown
Mean motion
0.22628 °/min
Orbital period
1,590.95 mins
BSTAR
0
Loading historical data...
43433 neighbors
Loading maneuver chart data...
Loading SW <> Apogee altitude chart data...
Loading historical data...
Loading historical data...
Loading historical data...
Loading historical data...
Loading historical data...
Loading historical data...
Loading historical data...
Other satellites on launch #37 in the year 2018 (2018-04-18 UTC)

BREEZE-M R/B Visibility

Observer location: undefined°, undefined°

BREEZE-M R/B is likely not visible in the next few days
Span
Click to sort rows by Start time (UTC) header in descending order
Start Az.
Max El. time (UTC)
Max El. Az.
Max El.
End time (UTC)
End Az.
|